Location: Elstree
(51.6403°N, 0.2969°W)
Time: 21:41:49
(UTC+00:00)

deb Delta 107 - Pass Details

Date: 31 January 2022
Orbit: 707 x 861 km, 97.7° (Epoch: 21 May)

Event Time Altitude Azimuth Distance (km) Brightness Sun altitude
Rises 05:11:48 0° 29° (NNE) 3,122 ? -23.2°
Reaches altitude 10° 05:15:17 10° 56° (NE) 2,210 ? -22.7°
Maximum altitude 05:17:39 13° 85° (E) 1,989 ? -22.3°
Drops below altitude 10° 05:20:01 10° 115° (ESE) 2,231 ? -22.0°
Sets 05:23:34 0° 141° (SE) 3,176 ? -21.4°
